EW0105 Weather Reports


time (UTC)temp
F
wind
direction
speed
knots
gust
knots
rain 1hr
in
rain 24hr
in
rain mn
in
humidity
%
barometer
mb
20260504000021 64 360 0.0 0.0 0.00 0.00 0.00 51 1010.4
20260503234519 64 360 0.0 0.0 0.00 0.00 0.00 51 1010.6
20260503233018 64 360 0.0 0.0 0.00 0.00 0.00 51 1010.9
20260503231523 65 360 0.0 0.0 0.00 0.00 0.00 49 1011.0
20260503230017 65 130 0.0 0.0 0.00 0.00 0.00 50 1011.1
20260503224518 65 360 0.0 0.0 0.00 0.00 0.00 49 1011.2
20260503223018 65 122 0.0 0.0 0.00 0.00 0.00 49 1011.5
20260503221514 65 119 0.0 0.0 0.00 0.00 0.00 50 1011.2
20260503220109 64 360 0.0 0.0 0.00 0.00 0.00 50 1011.0
20260503214553 64 132 0.0 0.0 0.00 0.00 0.00 48 1010.7
20260503213035 64 360 0.0 0.0 0.00 0.00 0.00 50 1010.9
20260503211531 64 142 0.0 0.0 0.00 0.00 0.00 49 1011.7
20260503210011 63 360 0.0 0.0 0.00 0.00 0.00 50 1012.0
20260503204517 63 360 0.0 0.0 0.00 0.00 0.00 49 1012.1
20260503203055 62 360 0.0 0.0 0.00 0.00 0.00 51 1012.4
20260503201548 62 360 0.0 0.0 0.00 0.00 0.00 51 1012.7
20260503200034 62 360 0.0 0.0 0.00 0.00 0.00 51 1013.2
20260503194533 61 360 0.0 0.0 0.00 0.00 0.00 51 1013.7
20260503193028 61 105 0.0 0.0 0.00 0.00 0.00 50 1014.4
20260503191535 61 360 0.0 0.0 0.00 0.00 0.00 51 1014.7
20260503190025 61 121 0.0 0.0 0.00 0.00 0.00 50 1014.6
20260503184523 61 360 0.0 0.0 0.00 0.00 0.00 52 1014.9
20260503183020 61 360 0.0 0.0 0.00 0.00 0.00 50 1015.5
20260503181518 61 360 0.0 0.0 0.00 0.00 0.00 50 1015.6
20260503180116 61 360 0.0 0.0 0.00 0.00 0.00 52 1015.7
20260503174556 61 360 0.0 0.0 0.00 0.00 0.00 51 1016.0
20260503173046 60 360 0.0 0.0 0.00 0.00 0.00 50 1016.6
20260503171531 59 360 0.0 0.0 0.00 0.00 0.00 53 1017.2
20260503160110 57 360 0.0 0.0 0.00 0.00 0.00 52 1018.3
20260503140115 52 360 0.0 0.0 0.00 0.00 0.00 46 1019.2
20260503081532 44 360 0.0 0.0 0.00 0.00 0.00 55 1019.0
20260503071602 44 360 0.0 0.0 0.00 0.00 0.00 52 1018.9
20260503054621 43 360 0.0 0.0 0.00 0.00 0.00 34 1019.4
20260503053059 43 360 0.0 0.0 0.00 0.00 0.00 31 1019.4
20260503051540 44 360 0.0 0.0 0.00 0.00 0.00 33 1019.3
20260503050039 44 360 0.0 0.0 0.00 0.00 0.00 36 1019.3
20260503044519 45 360 0.0 0.0 0.00 0.00 0.00 39 1019.2
20260503043033 45 360 0.0 0.0 0.00 0.00 0.00 43 1019.1
20260503041559 45 360 0.0 0.0 0.00 0.00 0.00 49 1019.3
20260503034544 45 360 0.0 0.0 0.00 0.00 0.00 59 1019.4
20260503033038 45 360 0.0 0.0 0.00 0.00 0.00 59 1019.5
20260503031520 45 360 0.0 0.0 0.00 0.00 0.00 60 1019.4
20260503030018 46 360 0.0 0.0 0.00 0.00 0.00 60 1019.4
20260503024559 46 360 0.0 0.0 0.00 0.00 0.00 61 1019.4
20260503023103 47 360 0.0 0.0 0.00 0.00 0.00 61 1019.3
20260503021550 47 360 0.0 0.0 0.00 0.00 0.00 60 1019.2
20260503020048 48 360 0.0 0.0 0.00 0.00 0.00 58 1019.2
20260503014520 49 360 0.0 0.0 0.00 0.00 0.00 58 1018.9
20260503013019 50 360 0.0 0.0 0.00 0.00 0.00 54 1018.8
20260503011501 51 360 0.0 0.0 0.00 0.00 0.00 51 1018.7
20260503010105 51 360 0.0 0.0 0.00 0.00 0.00 50 1018.6
20260503010001 51 360 0.0 0.0 0.00 0.00 0.00 50 1018.5
20260503004559 52 360 0.0 0.0 0.00 0.00 0.00 49 1018.5
20260503003102 53 360 0.0 0.0 0.00 0.00 0.00 50 1018.5
20260503001602 54 360 0.0 0.0 0.00 0.00 0.00 45 1018.5